Location: Waco, TX
(31.5480°N, 97.1670°W)
Time: 03:25:49
(UTC-05:00)

ISS - All Passes

Search period start: 28 May 2017 00:00
Search period end: 07 June 2017 00:00
Orbit: 402 x 408 km, 51.6° (Epoch: 28 May)

Date Brightness Start Highest point End Pass type
(mag) Time Alt. Az. Time Alt. Az. Time Alt. Az.
28 May - 04:07:03 10° NW 04:10:19 75° NE 04:13:34 10° SE night (unlit)
28 May - 19:07:28 10° S 19:10:14 25° SE 19:13:01 10° ENE daylight
28 May - 20:44:03 10° W 20:46:40 22° NW 20:49:19 10° NNE daylight
29 May - 03:15:14 10° NNW 03:18:15 33° NE 03:21:15 10° ESE night (unlit)
29 May - 04:52:32 10° W 04:54:30 15° SW 04:56:27 10° SSW night (unlit)
29 May - 18:17:06 10° SSE 18:18:22 12° SE 18:19:38 10° ESE daylight
29 May - 19:51:23 10° WSW 19:54:32 42° NW 19:57:41 10° NNE daylight
30 May - 02:23:43 10° N 02:26:04 18° NE 02:28:24 10° E night (unlit)
30 May - 03:59:38 10° WNW 04:02:36 32° SW 04:05:33 10° SSE night (unlit)
30 May - 18:59:11 10° SW 19:02:27 83° SE 19:05:46 10° NE daylight
30 May - 20:38:40 10° NW 20:39:20 10° NNW 20:39:59 10° NNW daylight
31 May - 01:32:59 10° NNE 01:33:46 11° NNE 01:34:32 10° NE visible
31 May - 03:07:21 10° NW 03:10:37 79° SW 03:13:53 10° SE night (unlit)
31 May - 18:07:27 10° SSW 18:10:28 34° SE 18:13:29 10° ENE daylight
31 May - 19:44:42 10° W 19:47:01 18° NW 19:49:21 10° N daylight
01 Jun - 02:15:23 10° NNW 02:18:33 44° NE 02:21:41 10° ESE night (unlit)
01 Jun - 03:53:39 10° WSW 03:54:41 11° SW 03:55:43 10° SW night (unlit)
01 Jun - 17:16:28 10° SSE 17:18:32 16° SE 17:20:37 10° E daylight
01 Jun - 18:51:48 10° WSW 18:54:48 32° NW 18:57:49 10° NNE daylight
02 Jun - 01:23:42 10° NNW 01:26:22 22° NE 01:29:01 10° E visible
02 Jun - 03:00:04 10° WNW 03:02:47 24° SW 03:05:29 10° S night (unlit)
02 Jun - 17:59:23 10° SW 18:02:40 72° NW 18:05:57 10° NE daylight
03 Jun - 00:32:28 10° N 00:34:04 13° NNE 00:35:40 10° ENE visible
03 Jun - 02:07:35 10° NW 02:10:48 56° SW 02:13:59 10° SSE night (unlit)
03 Jun - 17:07:26 10° SSW 17:10:35 47° SE 17:13:46 10° ENE daylight
03 Jun - 18:45:21 10° WNW 18:47:16 14° NW 18:49:11 10° N daylight
04 Jun - 01:15:28 10° NW 01:18:44 60° NE 01:21:57 10° SE visible
04 Jun - 16:16:04 10° S 16:18:36 21° SE 16:21:09 10° ENE daylight
04 Jun - 17:52:10 10° W 17:54:58 25° NW 17:57:47 10° NNE daylight
05 Jun - 00:23:38 10° NNW 00:26:32 28° NE 00:29:25 10° E visible
05 Jun - 02:00:31 10° W 02:02:51 18° SW 02:05:10 10° S night (unlit)
05 Jun - 16:59:33 10° WSW 17:02:45 52° NW 17:06:00 10° NE daylight
05 Jun - 23:32:08 10° N 23:34:14 16° NE 23:36:20 10° ENE visible
06 Jun - 01:07:44 10° WNW 01:10:51 40° SW 01:13:56 10° SSE night (unlit)
06 Jun - 16:07:23 10° SW 16:10:38 66° SE 16:13:53 10° NE daylight
06 Jun - 17:46:05 10° NW 17:47:25 12° NNW 17:48:45 10° N daylight
